Tacoma Narrows, WA
on Tuesday, January 1, 2013

Tuesday
Previous Day Next Day
Daily Summary
 ActualAverageRecord
Temperature
Mean Temperature °F / °C °F / °C  
Max Temperature 41°F / 5°C 43°F / 6°C 53°F / 11°C (2006)
Min Temperature 28°F / -2°C 36°F / 2°C 25°F / -3°C (2011)
Degree Days
Heating Degree Days 30    
Moisture
Dew Point 30°F / -1°C   
Average Humidity 82    
Maximum Humidity 93    
Minimum Humidity 67    
Precipitation
Precipitation 0.00 in / 0.00 cm in / cm in / cm ()
Wind
Wind Speed 3 mph / 5 km/h   
Max Wind Speed 9 mph / 14 km/h   
Max Gust Speed mph / km/h   
Visibility 9 miles / 14 kilometers   
Events Fog   
Averages and records for this station are not official NWS values.
Key: T is trace of precipitation, MM is missing value
Source: NWS Daily Summary
Seasonal Weather Averages
Time(PST)TemperatureDew PointHumidity Pressure Visibility Wind DirectionWind SpeedGust SpeedPrecipitationEvents Conditions
12:48 AM 35.6°F / 2.0°C 30.2°F / -1.0°C 81% 30.46 in / 1031.4 hPa 10.0 miles / 16.1 kilometers NNE 4.6 mph / 7.4 km/h - N/A   Mostly Cloudy
12:53 AM 36.0°F / 2.2°C 30.9°F / -0.6°C 82% 30.47 in / 1031.6 hPa 10.0 miles / 16.1 kilometers NNE 4.6 mph / 7.4 km/h - N/A   Mostly Cloudy
1:53 AM 35.1°F / 1.7°C 30.9°F / -0.6°C 85% 30.47 in / 1031.8 hPa 10.0 miles / 16.1 kilometers ENE 3.5 mph / 5.6 km/h - N/A   Mostly Cloudy
2:18 AM 33.8°F / 1.0°C 30.2°F / -1.0°C 87% 30.47 in / 1031.7 hPa 10.0 miles / 16.1 kilometers Calm Calm - N/A   Partly Cloudy
2:35 AM 33.8°F / 1.0°C 30.2°F / -1.0°C 87% 30.48 in / 1032.1 hPa 10.0 miles / 16.1 kilometers Calm Calm - N/A   Mostly Cloudy
2:53 AM 34.0°F / 1.1°C 28.0°F / -2.2°C 79% 30.50 in / 1032.6 hPa 10.0 miles / 16.1 kilometers Calm Calm - N/A   Overcast
3:26 AM 35.6°F / 2.0°C 28.4°F / -2.0°C 75% 30.46 in / 1031.4 hPa 10.0 miles / 16.1 kilometers Calm Calm - N/A   Overcast
3:53 AM 35.1°F / 1.7°C 28.9°F / -1.7°C 78% 30.48 in / 1032.0 hPa 10.0 miles / 16.1 kilometers Calm Calm - N/A   Overcast
4:09 AM 33.8°F / 1.0°C 28.4°F / -2.0°C 81% 30.46 in / 1031.4 hPa 10.0 miles / 16.1 kilometers Calm Calm - N/A   Overcast
4:20 AM 33.8°F / 1.0°C 28.4°F / -2.0°C 81% 30.46 in / 1031.4 hPa 10.0 miles / 16.1 kilometers North 3.5 mph / 5.6 km/h - N/A   Overcast
4:41 AM 33.8°F / 1.0°C 28.4°F / -2.0°C 81% 30.45 in / 1031.0 hPa 10.0 miles / 16.1 kilometers Calm Calm - N/A   Scattered Clouds
4:53 AM 34.0°F / 1.1°C 28.0°F / -2.2°C 79% 30.45 in / 1031.2 hPa 10.0 miles / 16.1 kilometers Calm Calm - N/A   Clear
5:53 AM 33.1°F / 0.6°C 27.0°F / -2.8°C 78% 30.45 in / 1031.2 hPa 10.0 miles / 16.1 kilometers Calm Calm - N/A   Clear
6:53 AM 28.9°F / -1.7°C 27.0°F / -2.8°C 92% 30.45 in / 1031.2 hPa 4.0 miles / 6.4 kilometers North 3.5 mph / 5.6 km/h - N/A   Clear
7:53 AM 28.9°F / -1.7°C 27.0°F / -2.8°C 92% 30.46 in / 1031.4 hPa 2.5 miles / 4.0 kilometers Calm Calm - N/A   Clear
8:00 AM 28.4°F / -2.0°C 26.6°F / -3.0°C 93% 30.45 in / 1031.0 hPa 9.0 miles / 14.5 kilometers Calm Calm - N/A   Partly Cloudy
8:53 AM 34.0°F / 1.1°C 30.9°F / -0.6°C 89% 30.50 in / 1032.6 hPa 6.0 miles / 9.7 kilometers Calm Calm - N/A   Overcast
9:37 AM 33.8°F / 1.0°C 30.2°F / -1.0°C 87% 30.48 in / 1032.1 hPa 10.0 miles / 16.1 kilometers Variable 3.5 mph / 5.6 km/h - N/A   Scattered Clouds
9:53 AM 34.0°F / 1.1°C 30.0°F / -1.1°C 85% 30.50 in / 1032.6 hPa 10.0 miles / 16.1 kilometers NE 3.5 mph / 5.6 km/h - N/A   Partly Cloudy
10:53 AM 37.0°F / 2.8°C 28.9°F / -1.7°C 73% 30.49 in / 1032.4 hPa 10.0 miles / 16.1 kilometers North 3.5 mph / 5.6 km/h - N/A   Scattered Clouds
11:53 AM 39.0°F / 3.9°C 30.0°F / -1.1°C 70% 30.47 in / 1031.7 hPa 10.0 miles / 16.1 kilometers North 9.2 mph / 14.8 km/h - N/A   Clear
12:53 PM 41.0°F / 5.0°C 30.9°F / -0.6°C 67% 30.45 in / 1031.0 hPa 10.0 miles / 16.1 kilometers North 5.8 mph / 9.3 km/h - N/A   Clear
1:53 PM 41.0°F / 5.0°C 30.9°F / -0.6°C 67% 30.44 in / 1030.7 hPa 10.0 miles / 16.1 kilometers Variable 4.6 mph / 7.4 km/h - N/A   Clear
2:53 PM 39.9°F / 4.4°C 30.9°F / -0.6°C 70% 30.43 in / 1030.5 hPa 10.0 miles / 16.1 kilometers NNE 4.6 mph / 7.4 km/h - N/A   Clear
3:53 PM 39.9°F / 4.4°C 32.0°F / 0.0°C 73% 30.43 in / 1030.3 hPa 10.0 miles / 16.1 kilometers North 5.8 mph / 9.3 km/h - N/A   Clear
4:53 PM 39.0°F / 3.9°C 32.0°F / 0.0°C 76% 30.42 in / 1030.0 hPa 10.0 miles / 16.1 kilometers North 5.8 mph / 9.3 km/h - N/A   Clear
5:53 PM 35.1°F / 1.7°C 30.9°F / -0.6°C 85% 30.41 in / 1029.8 hPa 10.0 miles / 16.1 kilometers NNW 5.8 mph / 9.3 km/h - N/A   Clear
6:53 PM 37.9°F / 3.3°C 33.1°F / 0.6°C 83% 30.39 in / 1029.0 hPa 10.0 miles / 16.1 kilometers North 9.2 mph / 14.8 km/h - N/A   Clear
7:53 PM 36.0°F / 2.2°C 32.0°F / 0.0°C 86% 30.38 in / 1028.7 hPa 10.0 miles / 16.1 kilometers Calm Calm - N/A   Clear
8:53 PM 37.0°F / 2.8°C 33.1°F / 0.6°C 86% 30.37 in / 1028.4 hPa 10.0 miles / 16.1 kilometers Calm Calm - N/A   Clear
9:53 PM 34.0°F / 1.1°C 30.0°F / -1.1°C 85% 30.37 in / 1028.4 hPa 10.0 miles / 16.1 kilometers Calm Calm - N/A   Clear
10:53 PM 34.0°F / 1.1°C 30.9°F / -0.6°C 89% 30.37 in / 1028.2 hPa 9.0 miles / 14.5 kilometers Calm Calm - N/A   Clear
11:30 PM 32.0°F / 0.0°C 30.2°F / -1.0°C 93% 30.35 in / 1027.7 hPa 1.8 miles / 2.8 kilometers Calm Calm - N/A   Clear
11:53 PM 30.9°F / -0.6°C 28.9°F / -1.7°C 92% 30.36 in / 1028.1 hPa 0.5 miles / 0.8 kilometers Calm Calm - N/A Fog Light Freezing Fog
Moon Phase
Jan. 01 Jan. 04 Jan. 11 Jan. 18 Jan. 26
Sunrise:07:57 AM (PST) Moon Rise:09:28 PM (PST)1/1
Sunset:04:31 PM (PST) Moon Set:09:53 AM (PST)1/1

Copyright © 2014 The Weather Underground, Inc.